User: anonymous   Login
Location: Hertford
(51.8000°N, 0.0667°W)
Time: 17:35:16
(UTC+00:00)
Language:

Okean 2 Rocket - Orbit

View from above orbital plane
View from above orbital plane
View from above satellite
View from above satellite

Ground track
Ground track

The orbit data is extracted from the following two-line orbital elements,

1 20511U 90018B   20338.43218395  .00000117  00000-0  12353-4 0  9995
2 20511  82.5244 215.7658 0016006 285.3257 247.7047 14.80057384659208
Epoch (UTC): 03 December 2020 10:22:20
Eccentricity: 0.0016006
inclination: 82.5244°
perigee height: 618 km
apogee height: 640 km
right ascension of ascending node: 215.7658°
argument of perigee: 285.3257°
revolutions per day: 14.80057384
mean anomaly at epoch: 247.7047°
orbit number at epoch: 65920

The dashed part of the orbit path shows where the satellite is in the earth's shadow,  

DLR